Flag for Germany Weather past 2 weeks in Cuxhaven, Lower Saxony, Germany

Now
50 °F

Partly sunny.


Feels Like: 48 °F
Forecast: 48 / 53 °F
Wind: 5 mph from Northwest

Location: Nordholz

Current Time: May 25, 2015 at 11:33:03 PM

Latest Report: May 25, 2015 at 10:20 PM


Visibility: N/A

Pressure: 29.98 "Hg

Humidity: 82%

Dew point: 45 °F

Location of CuxhavenLocation

Historic Weather in Cuxhaven — Graph

°F

Cuxhaven temperature yesterday

Maximum temperature yesterday: 63 °F (at 4:20 PM)
Minimum temperature yesterday: 46 °F (at 4:20 AM)
Average temperature yesterday: 53 °F

Past Weeks' High & Low Weather Summary

 TemperatureHumidityPressure
High75 °F (May 11, 5:20 PM)100% (May 25, 6:45 AM)30.33 "Hg (May 25, 6:45 AM)
Low43 °F (May 20, 1:20 AM)41% (May 11, 5:20 PM)29.53 "Hg (May 18, 11:58 PM)
Average52 °F75%30.02 "Hg
* Reported May 10 9:20 PM — May 25 9:20 PM, Cuxhaven, Weather by CustomWeather, © 2015

Note: Actual official high and low records may vary slightly from our data, if they occured in-between our weather recording intervals... More about our weather records

Advertising

Cuxhaven weather history for previous 24 hours

 ConditionsComfort  
Time TempWeatherWind HumidityBarometerVisibility
9:20 PM
Mon, May 25
52 °FPartly sunny.6 mph67%29.98 "HgN/A
8:20 PM52 °FPartly sunny.9 mph72%29.95 "HgN/A
7:20 PM54 °FScattered clouds.9 mph54%29.95 "HgN/A
6:20 PM54 °FPassing clouds.14 mph67%29.95 "HgN/A
5:20 PM54 °FPassing clouds.13 mph72%29.95 "HgN/A
4:20 PM55 °FPassing clouds.15 mph63%29.95 "HgN/A
3:20 PM54 °FPassing clouds.13 mph67%29.95 "HgN/A
2:20 PM54 °FScattered clouds.13 mph63%29.95 "HgN/A
1:20 PM55 °FScattered clouds.15 mph63%29.95 "HgN/A
12:20 PM54 °FScattered clouds.14 mph67%29.95 "HgN/A
11:20 AM52 °FPartly sunny.14 mph77%29.95 "HgN/A
10:20 AM52 °FPartly sunny.9 mph77%29.95 "HgN/A
9:20 AM52 °FBroken clouds.13 mph88%29.95 "HgN/A
8:20 AM52 °FPartly sunny.9 mph94%29.95 "HgN/A
7:20 AM52 °FPartly sunny.9 mph94%29.92 "HgN/A
6:45 AM50 °FPartly sunny.12 mph100%29.92 "HgN/A
6:20 AM52 °FDrizzle. Partly sunny.8 mph94%29.92 "HgN/A
5:50 AM52 °FDrizzle. Fog.9 mph94%29.92 "Hg2 mi
5:20 AM52 °FDrizzle. Fog.10 mph94%29.92 "Hg1 mi
4:20 AM52 °FPassing clouds.5 mph82%29.95 "HgN/A
3:20 AM52 °FPassing clouds.5 mph82%29.95 "HgN/A
2:20 AM48 °FPassing clouds.3 mph87%29.98 "HgN/A
1:20 AM50 °FPartly cloudy.2 mph82%29.98 "HgN/A
12:20 AM48 °FPartly cloudy.5 mph87%30.01 "HgN/A
11:20 PM
Sun, May 24
48 °FPassing clouds.2 mph87%30.01 "HgN/A
Weather by CustomWeather, © 2015

See weather overviewHow to use our weather pages